Location: Madrid
(40.4000°N, 3.6830°W)
Time: 21:11:27
(UTC+01:00)

ISS - Pass Details

Date: 23 March 2017
Orbit: 399 x 409 km, 51.6° (Epoch: 24 March)

Event Time Altitude Azimuth Distance (km) Brightness Sun altitude
Exits shadow 06:02:47 28° 271° (W) 795 -2.9 -14.1°
Maximum altitude 06:03:57 40° 223° (SW) 613 -3.3 -13.9°
Drops below altitude 10° 06:07:04 10° 152° (SSE) 1,465 -0.8 -13.3°
Sets 06:09:12 0° 144° (SE) 2,321 0.3 -12.9°
